TimeEDT,TemperatureF,Dew PointF,Humidity,Sea Level PressureIn,VisibilityMPH,Wind Direction,Wind SpeedMPH,Gust SpeedMPH,PrecipitationIn,Events,Conditions,WindDirDegrees,DateUTC
12:56 AM,43.9,39.9,86,30.12,10.0,East,4.6,-,N/A,,Clear,90,2012-10-23 04:56:00
1:56 AM,43.9,39.9,86,30.11,10.0,East,5.8,-,N/A,,Clear,80,2012-10-23 05:56:00
2:56 AM,43.0,39.9,89,30.11,10.0,East,5.8,-,N/A,,Clear,80,2012-10-23 06:56:00
3:56 AM,43.0,39.9,89,30.10,10.0,ENE,6.9,-,N/A,,Clear,70,2012-10-23 07:56:00
4:56 AM,41.9,39.9,93,30.09,10.0,ENE,6.9,-,N/A,,Partly Cloudy,70,2012-10-23 08:56:00
5:56 AM,43.9,41.0,90,30.12,10.0,Calm,Calm,-,N/A,,Overcast,0,2012-10-23 09:56:00
6:27 AM,44.6,42.8,93,30.12,10.0,Calm,Calm,-,0.00,Rain,Light Rain,0,2012-10-23 10:27:00
6:56 AM,43.9,41.9,93,30.13,10.0,ENE,5.8,-,0.00,Rain,Light Rain,70,2012-10-23 10:56:00
7:56 AM,43.9,43.0,97,30.13,10.0,ENE,5.8,-,0.03,Rain,Light Rain,70,2012-10-23 11:56:00
8:56 AM,46.9,45.0,93,30.14,10.0,ENE,3.5,-,0.01,Rain,Light Rain,70,2012-10-23 12:56:00
11:56 AM,48.9,47.8,96,30.12,5.0,East,5.8,-,0.07,Rain,Light Rain,90,2012-10-23 15:56:00
12:56 PM,50.0,48.9,96,30.10,5.0,East,3.5,-,0.01,Rain,Light Rain,100,2012-10-23 16:56:00
1:56 PM,50.9,50.0,97,30.09,5.0,Calm,Calm,-,0.05,Rain,Rain,0,2012-10-23 17:56:00
2:15 PM,51.8,50.0,94,30.07,2.5,Calm,Calm,-,0.04,Rain,Rain,0,2012-10-23 18:15:00
2:21 PM,51.8,50.0,94,30.07,3.0,Calm,Calm,-,0.05,Rain,Rain,0,2012-10-23 18:21:00
2:56 PM,50.9,50.0,97,30.07,3.0,East,3.5,-,0.12,Rain,Rain,100,2012-10-23 18:56:00
3:56 PM,50.9,50.9,100,30.06,3.0,East,4.6,-,0.12,Rain,Rain,90,2012-10-23 19:56:00
4:27 PM,51.8,51.8,100,30.05,2.0,ESE,3.5,-,0.04,Rain,Rain,110,2012-10-23 20:27:00
4:56 PM,52.0,50.9,96,30.07,2.0,Calm,Calm,-,0.08,Rain,Rain,0,2012-10-23 20:56:00
5:43 PM,53.6,51.8,94,30.06,2.0,South,4.6,-,0.07,Rain,Light Rain,170,2012-10-23 21:43:00
5:56 PM,52.9,52.0,97,30.08,2.5,South,4.6,-,0.08,Rain,Rain,170,2012-10-23 21:56:00
6:56 PM,52.9,52.0,97,30.07,3.0,ESE,4.6,-,0.02,Rain,Light Rain,110,2012-10-23 22:56:00
7:56 PM,52.0,52.0,100,30.08,6.0,Calm,Calm,-,0.00,,Overcast,0,2012-10-23 23:56:00
8:56 PM,52.0,52.0,100,30.09,6.0,Calm,Calm,-,N/A,,Overcast,0,2012-10-24 00:56:00
9:56 PM,52.0,52.0,100,30.10,4.0,Calm,Calm,-,N/A,,Overcast,0,2012-10-24 01:56:00
10:03 PM,53.6,53.6,100,30.09,2.5,Calm,Calm,-,N/A,,Overcast,0,2012-10-24 02:03:00
10:10 PM,53.6,53.6,100,30.09,3.0,Calm,Calm,-,N/A,,Overcast,0,2012-10-24 02:10:00
10:25 PM,53.6,53.6,100,30.09,2.5,Calm,Calm,-,N/A,,Overcast,0,2012-10-24 02:25:00
10:31 PM,53.6,53.6,100,30.09,1.8,West,3.5,-,N/A,,Overcast,260,2012-10-24 02:31:00
10:43 PM,53.6,53.6,100,30.09,1.0,WNW,3.5,-,N/A,,Overcast,300,2012-10-24 02:43:00
10:45 PM,53.6,53.6,100,30.09,0.5,WNW,3.5,-,N/A,Fog,Fog,300,2012-10-24 02:45:00
10:56 PM,52.0,52.0,100,30.10,0.2,Calm,Calm,-,N/A,Fog,Fog,0,2012-10-24 02:56:00
11:16 PM,51.8,51.8,100,30.09,0.5,Calm,Calm,-,N/A,Fog,Fog,0,2012-10-24 03:16:00
11:20 PM,51.8,51.8,100,30.09,0.8,North,3.5,-,N/A,,Overcast,350,2012-10-24 03:20:00
11:26 PM,51.8,51.8,100,30.09,1.2,Calm,Calm,-,N/A,,Overcast,0,2012-10-24 03:26:00
11:30 PM,51.8,51.8,100,30.09,2.0,Calm,Calm,-,N/A,,Overcast,0,2012-10-24 03:30:00
11:56 PM,52.0,52.0,100,30.10,1.2,Calm,Calm,-,N/A,,Overcast,0,2012-10-24 03:56:00